www.pogodaiklimat.ru

Погода и климат >> Архив погоды >> Эквадор >> Milagro


ПОГОДА в Milagro

  • Прогноз погоды в Milagro
  • Монитор погоды в Milagro
  • Климат города

АРХИВ ПОГОДЫ в Milagro

Время (UTC), дата Ветер
(напр.,м/с)
 
Видим.   Явления Облачность Т
(С)
Тd
(С)
f
(%)
Тe
(С)
Тes
(С)
Комфортность P
(гПа)
Po
(гПа)
Тmin
(С)
Tmax
(С)
R
(мм)
R24
(мм)
S
(см)
00 16.05 штиль 0 5000 м мгла {туман} 10/10 300 м
[St]
+28.8 +24.2 76 +40 +40 очень
душно
1007.7 1007.7 +31.0
12 16.05 штиль 0 3000 м осадки на расстоянии {туман} 10/10 200 м
[St]
+23.8 +22.7 94 +31 +31 очень
душно
1009.8 1009.8 +23.8 +31.0
15 16.05 З 6 12 км мгла {туман} 10/5 300 м
[Sc Ac trans]
+27.6 +22.3 73 +36 +37 очень
душно
1010.8 1010.8
18 16.05 ЮЗ 4 12 км мгла {туман} 10/5 300 м
[Cu hum Ac As]
+29.2 +23.8 73 +40 +42 очень
душно
1008.7 1008.7
21 16.05 ЮВ 4 10 км мгла {туман} 10/6 300 м
[Cu med, cong Ac As]
+29.5 +24.2 73 +41 +42 опасность
перегрева
1006.2 1006.2 +30.3
00 17.05 штиль 0 5000 м мгла {туман} 9/9 300 м
[Sc]
+26.5 +24.5 89 +37 +37 очень
душно
1007.1 1007.1 +30.3
12 17.05 Ю 4 4000 м осадки на расстоянии {туман} 10/10 200 м
[St]
+24.0 +22.5 91 +31 +31 очень
душно
1009.2 1009.2 +24.0 +30.3
15 17.05 Ю 4 8000 м мгла {туман} 10/6 300 м
[St As trans]
+26.6 +23.6 84 +36 +38 очень
душно
1009.8 1009.8
18 17.05 СЗ 4 10 км мгла {туман} 10/5 300 м
[Cu hum Ac As]
+27.8 +24.0 80 +39 +40 очень
душно
1008.3 1008.3
21 17.05 З 4 12 км мгла {туман} 10/4 300 м
[Cu med, cong Ac As]
+29.4 +24.5 75 +42 +42 опасность
перегрева
1006.2 1006.2 +30.2
00 18.05 штиль 0 5000 м мгла {туман} 9/9 300 м
[Sc diur, vesp]
+27.4 +24.4 84 +39 +39 очень
душно
1007.1 1007.1 +30.2
12 18.05 ЮВ 30 3000 м осадки на расстоянии {туман} 10/10 200 м
[St]
+23.4 +22.0 92 +32 +32 очень
душно
1010.2 1010.2 +23.3 +30.2
15 18.05 Ю 4 3000 м осадки на расстоянии {туман} 10/6 200 м
[St As trans]
+24.9 +22.5 87 +33 +34 очень
душно
1011.6 1011.6
18 18.05 СЗ 4 6000 м осадки на расстоянии {туман} 10/5 300 м
[St As trans]
+25.8 +23.0 85 +34 +37 очень
душно
1010.1 1010.1
21 18.05 Ю 4 5000 м осадки на расстоянии {туман} 10/6 300 м
[St As trans]
+26.2 +23.2 84 +35 +36 очень
душно
1008.1 1008.1 +27.0
00 19.05 Ю 2 4000 м осадки на расстоянии {туман} 10/10 200 м
[St]
+25.5 +23.3 88 +34 +34 очень
душно
1009.3 1009.3 +27.0
15 19.05 Ю 6 10 км мгла {туман} 10/4 300 м
[St As trans]
+26.8 +22.3 76 +35 +36 очень
душно
1011.3 1011.3
15 20.05 ЮЗ 2 10 км осадки на расстоянии {туман} 9/6 600 м
[Sc Ac trans]
+26.2 +22.9 82 +35 +38 очень
душно
1012.0 1012.0
18 20.05 ЮЗ 2 15 км мгла {туман} 10/8 300 м
[St Ac trans]
+27.2 +23.1 78 +36 +38 очень
душно
1010.6 1010.6
12 21.05 штиль 0 5000 м мгла {туман} 10/10 300 м
[St]
+22.5 +21.5 94 +30 +30 очень
душно
1011.1 1011.1 +22.3 +29.6
15 21.05 ЮЗ 2 8000 м мгла {туман} 10/10 300 м
[St]
+24.7 +21.6 83 +32 +32 очень
душно
1012.3 1012.3
18 21.05 ЮЗ 6 12 км мгла {туман} 9/8 300 м
[Cu hum Ac trans]
+29.0 +22.3 67 +38 +39 очень
душно
1010.1 1010.1
21 21.05 ЮВ 4 12 км мгла {туман} 8/6 300 м
[Cu med, cong Ac trans]
+29.6 +23.6 70 +40 +41 очень
душно
1007.6 1007.6 +30.7
00 22.05 ЮВ 4 8000 м мгла {туман} ясно +27.0 +23.4 81 +37 +37 очень
душно
1008.6 1008.6 +30.7
12 22.05 штиль 0 5000 м мгла {туман} 10/10 300 м
[Sc]
+23.4 +2.0 25 +23 +23 комфорт 1010.0 1010.0 +22.9 +30.7
15 22.05 ЮЗ 4 10 км мгла {туман} 10/10 300 м
[Sc]
+26.9 +23.0 79 +36 +36 очень
душно
1010.9 1010.9
18 22.05 С 6 12 км мгла {туман} 9/9 300 м
[Cu hum Ac trans]
+30.2 +23.5 67 +41 +41 опасность
перегрева
1009.1 1009.1

 

Местоположение метеостанции Milagro (Эквадор): широта -2.12 долгота -79.60 высота над уровнем моря 13 м.

В архиве по умолчанию представлена погода в Milagro за последнюю неделю. Архивные данные за месяц целиком и за предыдущие месяцы, начиная с января 2011 года, Вы можете получить, выбрав интересующий диапазон дат из раскрывающегося списка и нажав кнопку "Ввод!".


*Определитесь, кто Вы:
робот инопланетянин человек

Внимание! Время в таблицах - всемирное. Для получения местного времени необходимо прибавить поправку, которая в Milagro равна -5 ч.

Смотрите также архив погоды в соседних городах и на ближайших метеорологических станциях:

Погода в Guayaquil (Эквадор) (31 км)
Погода в Guayaquil Aeropuerto (Эквадор) (31 км)
Погода в Canar (Эквадор) (88 км)
Погода в Cuenca (Эквадор) (109 км)
Погода в Pichilingue (Эквадор) (115 км)
Погода в Riobamba (Эквадор) (117 км)
Погода в Corazon (Эквадор) (124 км)
Погода в Machala (Эквадор) (132 км)
Погода в Querochaca (Эквадор) (139 км)
Погода в Santa Rosa (Эквадор) (152 км)

Пояснения к столбцам:

Ветер - указаны скорость ветра в м/с - средняя за 10 мин, порывы в срок и между сроками (в фигурных скобках) и направление, откуда дует ветер: С - северный, СВ - северо-восточный, В - восточный, ЮВ - юго-восточный, Ю - южный, ЮЗ - юго-западный, З - западный, СЗ - северо-западный.
Видимость - горизонтальная дальность видимости в метрах или километрах. При видимости от 1 до 10 км при отсутствии осадков обычно наблюдается дымка, при ухудшении видимости до 1 км и менее - туман. В сухую погоду видимость может ухудшаться дымом, пылью или мглою.
Явления - указаны атмосферные явления, наблюдавшиеся в срок или в последний час перед сроком; фигурными скобками обозначены явления, наблюдавшиеся между сроками (за 1-3 часа до срока); квадратными скобками обозначены град или гололедные отложения с указанием их диаметра в мм.
Облачность - указаны через наклонную черту общая и нижняя облачность в баллах и высота нижней границы облаков в метрах; квадратными скобками обозначены формы облаков: Ci - перистые, Cs - перисто-слоистые, Cc - перисто-кучевые, Ac - высококучевые, As - высокослоистые, Sc - слоисто-кучевые, Ns - слоисто-дождевые, Cu - кучевые, Cb - кучево-дождевые. Подробнее классификацию облаков см. в Атласе облаков (PDF).
T - Температура воздуха - температура, измеренная на высоте 2 м над землей.
Td - Температура точки росы - температура, при понижении до которой содержащийся в воздухе водяной пар достигнет насыщения.
f - Относительная влажность воздуха - влажноcть воздуха, измеренная на высоте 2 м над землей.
Te - Эффективная температура - температура, которую ощущает одетый по сезону человек в тени. Характеристика душности погоды. При расчете учитывается влияние влажности воздуха и скорости ветра на теплоощущения человека.
Tes - Эффективная температура на солнце - температура, которую ощущает человек, с поправкой на солнечный нагрев. Характеристика знойности погоды. Зависит от высоты солнца над горизонтом, облачности и скорости ветра. Ночью, в пасмурную погоду, а также при ветре 12 м/с и более поправка равна нулю.
P - Атмосферное давление - приведенное к уровню моря атмосферное давление.
Po - Атмосферное давление - измеренное на уровне метеостанции атмосферное давление.
Tmin - Минимальная температура - минимум температуры воздуха на высоте 2 м над землей.
Tmax - Максимальная температура - максимум температуры воздуха на высоте 2 м над землей.
R - Количество осадков - Количество выпавших осадков за период времени, мм. При наведении курсора мыши на число - период времени, за который выпало указанное количество осадков.
R24 - Количество осадков - Количество выпавших осадков за 24 часа, мм.
S - Снежный покров - Высота снежного покрова, см. При наведении курсора мыши на число - состояние снежного покрова и степень покрытия местности в баллах.